When you browse on this site, cookies collect data to enhance your experience and personalize the content and advertising you see.
Visit our Privacy Policy to learn more. By continuing to use the site, you agree to this use of cookies and data.
  • En España
  • Lista de países
  • Para 7 días
  • Temperatura del agua
  • El tiempo en el mapa
  • Informadores
  • user-avatar
    Iniciar sesión

    Tiempo cada hora Bogota

    Hoy, 2 Junio, Martes

    Tiempo Temperatura Precipitaciones Viento Presión Humedad
    00:00 +10°C° 0 mm 1 mps 548 mmHg 89%
    01:00 +10°C° 0 mm 1 mps 547 mmHg 89%
    02:00 +10°C° 0 mm 1 mps 547 mmHg 90%
    03:00 +10°C° 0 mm 1 mps 547 mmHg 90%
    04:00 +8°C° 0 mm 0 mps 547 mmHg 90%
    05:00 +9°C° 0 mm 0 mps 547 mmHg 88%
    06:00 +10°C° 0 mm 0 mps 548 mmHg 87%
    07:00 +12°C° 0 mm 1 mps 549 mmHg 82%
    08:00 +14°C° 0 mm 1 mps 550 mmHg 74%
    09:00 +16°C° 0 mm 1 mps 551 mmHg 66%
    10:00 +19°C° 0 mm 1 mps 552 mmHg 59%
    11:00 +18°C° 0.3 mm 2 mps 552 mmHg 61%
    12:00 +19°C° 0.3 mm 2 mps 551 mmHg 63%
    13:00 +19°C° 0.3 mm 2 mps 550 mmHg 66%
    14:00 +18°C° 0.9 mm 2 mps 549 mmHg 71%
    15:00 +18°C° 0.9 mm 1 mps 549 mmHg 76%
    16:00 +16°C° 0.9 mm 1 mps 548 mmHg 80%
    17:00 +15°C° 0.6 mm 1 mps 547 mmHg 84%
    18:00 +14°C° 0.6 mm 1 mps 547 mmHg 88%
    19:00 +11°C° 0.6 mm 0 mps 547 mmHg 92%
    20:00 +12°C° 0.2 mm 1 mps 547 mmHg 91%
    21:00 +12°C° 0.2 mm 1 mps 547 mmHg 90%
    22:00 +11°C° 0.2 mm 1 mps 548 mmHg 89%
    23:00 +11°C° 0 mm 1 mps 547 mmHg 89%

    Mañana, 3 Junio, Miércoles

    Tiempo Temperatura Precipitaciones Viento Presión Humedad
    00:00 +11°C° 0 mm 1 mps 547 mmHg 89%
    01:00 +11°C° 0 mm 1 mps 547 mmHg 89%
    02:00 +10°C° 0 mm 1 mps 547 mmHg 90%
    03:00 +10°C° 0 mm 1 mps 546 mmHg 90%
    04:00 +10°C° 0 mm 1 mps 546 mmHg 90%
    05:00 +10°C° 0 mm 0 mps 547 mmHg 89%
    06:00 +11°C° 0 mm 0 mps 548 mmHg 88%
    07:00 +11°C° 0 mm 0 mps 548 mmHg 87%
    08:00 +13°C° 0.2 mm 1 mps 549 mmHg 85%
    09:00 +14°C° 0.2 mm 1 mps 549 mmHg 82%
    10:00 +15°C° 0.2 mm 1 mps 550 mmHg 80%
    11:00 +16°C° 1.1 mm 1 mps 550 mmHg 82%
    12:00 +16°C° 1.1 mm 1 mps 549 mmHg 84%
    13:00 +16°C° 1.1 mm 1 mps 549 mmHg 85%
    14:00 +15°C° 1.1 mm 1 mps 548 mmHg 87%
    15:00 +15°C° 1.1 mm 1 mps 548 mmHg 88%
    16:00 +14°C° 1.1 mm 1 mps 547 mmHg 89%
    17:00 +14°C° 0.8 mm 1 mps 547 mmHg 91%
    18:00 +13°C° 0.8 mm 1 mps 547 mmHg 92%
    19:00 +13°C° 0.8 mm 1 mps 547 mmHg 94%
    20:00 +12°C° 0.5 mm 1 mps 548 mmHg 93%
    21:00 +12°C° 0.5 mm 1 mps 548 mmHg 92%
    22:00 +11°C° 0.5 mm 0 mps 548 mmHg 92%
    23:00 +11°C° 0.1 mm 0 mps 548 mmHg 92%

    Pasado mañana, 4 Junio, Jueves

    Tiempo Temperatura Precipitaciones Viento Presión Humedad
    00:00 +11°C° 0.1 mm 0 mps 548 mmHg 91%
    01:00 +11°C° 0.1 mm 0 mps 547 mmHg 91%
    02:00 +11°C° 0.1 mm 0 mps 547 mmHg 92%
    03:00 +10°C° 0.1 mm 0 mps 547 mmHg 92%
    04:00 +10°C° 0.1 mm 0 mps 547 mmHg 92%
    05:00 +11°C° 0 mm 0 mps 548 mmHg 91%
    06:00 +11°C° 0 mm 0 mps 548 mmHg 90%
    07:00 +11°C° 0 mm 0 mps 548 mmHg 89%
    08:00 +14°C° 0.1 mm 1 mps 549 mmHg 83%
    09:00 +15°C° 0.1 mm 1 mps 551 mmHg 78%
    10:00 +18°C° 0.1 mm 1 mps 552 mmHg 72%
    11:00 +18°C° 0.6 mm 1 mps 551 mmHg 73%
    12:00 +18°C° 0.6 mm 1 mps 551 mmHg 74%
    13:00 +17°C° 0.6 mm 2 mps 550 mmHg 76%
    14:00 +18°C° 0.6 mm 1 mps 549 mmHg 77%
    15:00 +16°C° 0.6 mm 1 mps 549 mmHg 79%
    16:00 +16°C° 0.6 mm 1 mps 548 mmHg 80%
    17:00 +15°C° 0.6 mm 1 mps 548 mmHg 84%
    18:00 +14°C° 0.6 mm 1 mps 548 mmHg 88%
    19:00 +13°C° 0.6 mm 1 mps 548 mmHg 93%
    20:00 +12°C° 0.2 mm 1 mps 548 mmHg 92%
    21:00 +12°C° 0.2 mm 1 mps 548 mmHg 91%
    22:00 +12°C° 0.2 mm 1 mps 548 mmHg 91%
    23:00 +12°C° 0.2 mm 1 mps 548 mmHg 91%

    5 Junio, Viernes

    Tiempo Temperatura Precipitaciones Viento Presión Humedad
    00:00 +12°C° 0.2 mm 1 mps 548 mmHg 91%
    01:00 +12°C° 0.2 mm 1 mps 548 mmHg 91%
    02:00 +12°C° 0.3 mm 1 mps 548 mmHg 92%
    03:00 +12°C° 0.3 mm 1 mps 548 mmHg 92%
    04:00 +12°C° 0.3 mm 1 mps 548 mmHg 93%
    05:00 +12°C° 0.8 mm 1 mps 548 mmHg 93%
    06:00 +12°C° 0.8 mm 1 mps 548 mmHg 93%
    07:00 +12°C° 0.8 mm 1 mps 549 mmHg 94%
    08:00 +13°C° 0.3 mm 1 mps 549 mmHg 91%
    09:00 +13°C° 0.3 mm 1 mps 549 mmHg 89%
    10:00 +14°C° 0.3 mm 1 mps 550 mmHg 87%
    11:00 +14°C° 0.4 mm 1 mps 549 mmHg 87%
    12:00 +14°C° 0.4 mm 1 mps 549 mmHg 88%
    13:00 +13°C° 0.4 mm 1 mps 548 mmHg 88%
    14:00 +14°C° 0.3 mm 1 mps 548 mmHg 86%
    15:00 +15°C° 0.3 mm 1 mps 548 mmHg 83%
    16:00 +15°C° 0.3 mm 1 mps 549 mmHg 81%
    17:00 +14°C° 0.6 mm 1 mps 548 mmHg 84%
    18:00 +13°C° 0.6 mm 2 mps 548 mmHg 87%
    19:00 +12°C° 0.6 mm 2 mps 548 mmHg 91%
    20:00 +12°C° 0.1 mm 2 mps 548 mmHg 91%
    21:00 +11°C° 0.1 mm 1 mps 548 mmHg 90%
    22:00 +10°C° 0.1 mm 1 mps 548 mmHg 90%
    23:00 +10°C° 0 mm 1 mps 548 mmHg 91%

    6 Junio, Sábado

    Tiempo Temperatura Precipitaciones Viento Presión Humedad
    00:00 +10°C° 0 mm 1 mps 548 mmHg 91%
    01:00 +10°C° 0 mm 1 mps 547 mmHg 91%
    02:00 +11°C° 0 mm 1 mps 547 mmHg 91%
    03:00 +11°C° 0 mm 1 mps 547 mmHg 91%
    04:00 +11°C° 0 mm 1 mps 547 mmHg 92%
    05:00 +11°C° 0 mm 1 mps 548 mmHg 91%
    06:00 +12°C° 0 mm 1 mps 548 mmHg 90%
    07:00 +12°C° 0 mm 1 mps 549 mmHg 90%
    08:00 +13°C° 0.2 mm 1 mps 550 mmHg 83%
    09:00 +15°C° 0.2 mm 1 mps 551 mmHg 77%
    10:00 +16°C° 0.2 mm 1 mps 551 mmHg 70%
    11:00 +18°C° 0.3 mm 1 mps 551 mmHg 67%
    12:00 +17°C° 0.3 mm 2 mps 551 mmHg 64%
    13:00 +18°C° 0.3 mm 2 mps 551 mmHg 60%
    14:00 +17°C° 0.2 mm 2 mps 550 mmHg 63%
    15:00 +17°C° 0.2 mm 2 mps 549 mmHg 66%
    16:00 +16°C° 0.2 mm 2 mps 549 mmHg 69%
    17:00 +15°C° 0.1 mm 1 mps 548 mmHg 75%
    18:00 +14°C° 0.1 mm 1 mps 548 mmHg 81%
    19:00 +13°C° 0.1 mm 1 mps 548 mmHg 86%
    20:00 +12°C° 0 mm 1 mps 548 mmHg 86%
    21:00 +12°C° 0 mm 1 mps 548 mmHg 86%
    22:00 +11°C° 0 mm 1 mps 549 mmHg 86%
    23:00 +11°C° 0.1 mm 1 mps 549 mmHg 85%

    7 Junio, Domingo

    Tiempo Temperatura Precipitaciones Viento Presión Humedad
    00:00 +11°C° 0.1 mm 1 mps 548 mmHg 85%
    01:00 +11°C° 0.1 mm 1 mps 548 mmHg 85%
    02:00 +11°C° 0 mm 1 mps 548 mmHg 87%
    03:00 +10°C° 0 mm 1 mps 547 mmHg 89%
    04:00 +10°C° 0 mm 1 mps 547 mmHg 90%
    05:00 +11°C° 0 mm 1 mps 548 mmHg 89%
    06:00 +10°C° 0 mm 0 mps 548 mmHg 87%
    07:00 +11°C° 0 mm 0 mps 549 mmHg 86%
    08:00 +13°C° 0.2 mm 1 mps 550 mmHg 80%
    09:00 +15°C° 0.2 mm 1 mps 551 mmHg 74%
    10:00 +18°C° 0.2 mm 1 mps 552 mmHg 68%
    11:00 +18°C° 0.5 mm 1 mps 551 mmHg 68%
    12:00 +17°C° 0.5 mm 2 mps 551 mmHg 67%
    13:00 +17°C° 0.5 mm 2 mps 551 mmHg 67%
    14:00 +17°C° 0.5 mm 2 mps 550 mmHg 70%
    15:00 +16°C° 0.5 mm 2 mps 549 mmHg 73%
    16:00 +16°C° 0.5 mm 1 mps 549 mmHg 76%
    17:00 +14°C° 0.4 mm 1 mps 548 mmHg 81%
    18:00 +13°C° 0.4 mm 1 mps 548 mmHg 85%
    19:00 +12°C° 0.4 mm 1 mps 548 mmHg 90%
    20:00 +11°C° 0 mm 1 mps 548 mmHg 90%
    21:00 +11°C° 0 mm 1 mps 548 mmHg 89%
    22:00 +11°C° 0 mm 1 mps 548 mmHg 89%
    23:00 +11°C° 0.1 mm 1 mps 548 mmHg 89%
    Mostrar más